STARLINK-4734, 53790

Orbit data source: Space-Track

STARLINK-4734, 53790 is a payload satellite owned by SpaceX/Seattle (US) in LEO that was launched on Sun, 11 Sep 2022 UTC via an FALCON 9 launch vehicle from the Air Force Eastern Test Range (AFETR). Payload-class satellites include a variety of spacecraft equipped with specific instruments for various scientific and technological missions. These include communications satellites like Starlink; space stations such as the ISS; scientific satellites like the Hubble; Earth observation satellites from companies like Planet Labs, Umbra, and HawkEye 360; GPS; miniature CubeSats for education and research; and military/defense satellites.

Loading next visibility...
Identifier
53790, 2022-111T
Orbit
LEO
Country
Flag of USUS
Related business
Manufacturer
SpaceX/Seattle
Mission
Operational Commercial Communications
Bus & Motor
STARLINK, Unknown motor
Mass
305 kg wet, ~290 kg dry
Launch date (UTC)
2022-09-11 (3 years ago)
Launch vehicle
FALCON 9
Launch site
Air Force Eastern Test Range (AFETR)
Object type
Payload
Rocket body
Debris
Shape & HBR
Box + 1 Pan, 10.1 m
Radar Cross Section
13.562 m², Large (>1 m²)

Expand to show TLE details & history
Last TLE update: 13 hours ago

TLE from 13 hours ago
0 STARLINK-4734
1 53790U 22111T   25341.25687101  .00002716  00000-0  18868-3 0  9996
2 53790  53.2201 328.9486 0001811  97.0829 263.0369 15.08841352179749
Epoch: 2025-12-07T06:09Z
TLE epoch observation values (Epoch: 2025-12-07T06:09:53.655Z)
Latitude
-0.00003°
Longitude
160.20216°
Altitude
540.789 km
Speed
7.593 km/s
True Right ascension
21h 55m 47s
True Declination
0° 00' 00"
Sunlit
Object was in daylight at epoch
Visualization orbit readout
Latitude
Unknown
Longitude
Unknown
Altitude
Unknown
Speed
Unknown
Apparent Right ascension
Unknown
Apparent Declination
Unknown
Sunlit
N/A
Visualization observer readout
Local Sidereal Time
17:26:50
Azimuth
Unknown
Elevation
Unknown
Doppler factor
Unknown
Orbital elements
Apogee altitude
541.237 km
Perigee altitude
538.731 km
Semi-major axis
6,918.121 km
Eccentricity
0.00018
Inclination
53.2201°
RAAN
328.9486°
Arg. of periapsis
97.0829°
True anomaly
263.0163°
Mean anomaly
263.0369°
Eccentric anomaly
263.0266°
Mean motion
3.77191 °/min
Orbital period
95.44 mins
BSTAR
0.00018868
Loading maneuver chart data...
Computing Atmospheric mass density...
Loading historical data...
Loading historical data...
Loading historical data...
Loading historical data...
Loading historical data...
Loading historical data...
Loading historical data...

Documentation

Showing up to 5 results
|